Location: Ferma
(41.9500°N, 44.5167°E)
Time: 03:15:22
(UTC+00:00)

NOSS 2-3 (D) - Pass Details

Date: 06 June 2022
Orbit: 536 x 1674 km, 63.3° (Epoch: 02 June)

Event Time Altitude Azimuth Distance (km) Brightness Sun altitude
Rises 19:49:23 0° 308° (NW) 3,766 8.4 -23.3°
Reaches altitude 10° 19:52:34 10° 291° (WNW) 3,008 7.5 -23.4°
Maximum altitude 19:57:29 20° 249° (WSW) 2,623 6.7 -23.7°
Enters shadow 20:00:50 15° 221° (SW) 3,038 6.7 -23.9°
